{"data":{"norad_id":81844,"epoch":"2026-09-17T18:27:04.580928Z","epoch_age_seconds":250639,"freshness":"STALE","line1":"1 81844U          26260.76880302  .00004012  00000+0  13514-2 0  9997","line2":"2 81844  82.9084  53.3248 0058198  15.9084 344.3916 14.35923177662894","mean_motion":14.35923177,"eccentricity":0.0058198,"inclination_deg":82.9084,"raan_deg":53.3248,"arg_perigee_deg":15.9084,"mean_anomaly_deg":344.3916,"bstar":0.0013514,"rev_number":66289,"period_min":100.28391651206,"perigee_km":730.38776139412,"apogee_km":813.61249752618,"semimajor_km":7150.1371294602,"source":"CELESTRAK","updated_at":"2026-09-20T09:00:32.396445Z"}}